Sheridan, NY

9:23 PM EST on February 07, 2016 (GMT -0500)
Chautauqua County-Dunkirk

Weather History for KDKK - January, 2014

Change the Weather History Date:

Thursday, January 2, 2014

  Actual Average Record
Temperature  
Mean Temperature 10 °F -  
Max Temperature 14 °F 34 °F 62 °F (2000)
Min Temperature 6 °F 22 °F -2 °F (1999)
Degree Days  
Heating Degree Days 55    
Moisture  
Dew Point 6 °F    
Average Humidity 81    
Maximum Humidity 86    
Minimum Humidity 73    
Precipitation  
Precipitation 0.01 in - - ()
Sea Level Pressure  
Sea Level Pressure 30.07 in    
Wind  
Wind Speed 15 mph (NE)    
Max Wind Speed 24 mph    
Max Gust Speed 32 mph    
Visibility 2 miles    
Events Fog , Snow    
Averages and records for this station are not official NWS values.
T = Trace of Precipitation, MM = Missing Value Source: NWS Daily Summary

Daily Weather History Graph

Daily Weather History Graph

Search for Another Location

Airport or City:

Trip Planner

Search our weather history database for the weather conditions in past years. The results will help you decide how hot, cold, wet, or windy it might be!

Date:

Astronomy

Jan. 02, 2014 Rise Set
Actual Time 7:46 AM EST 4:55 PM EST
Civil Twilight 7:14 AM EST 5:27 PM EST
Nautical Twilight 6:39 AM EST 6:02 PM EST
Astronomical Twilight 6:05 AM EST 6:37 PM EST
Moon 8:24 AM EST (1/2) 6:53 PM EST (1/2)
Length of Visible Light 10h 12m
Length of Day
9h 08m
New Moon, 2% of the Moon is Illuminated
Jan 2
New Moon
Jan 7
First Quarter
Jan 15
Full
Jan 24
Last Quarter
Jan 30
New

Hourly Weather History & Observations

Time (EST) Temp. Windchill Dew Point Humidity Pressure Visibility Wind Dir Wind Speed Gust Speed Precip Events Conditions
12:53 AM 14.0 °F -2.0 °F 9.0 °F 80% 30.24 in 3.0 mi NE 16.1 mph - 0.00 in Snow Light Snow
1:36 AM 14.0 °F -0.2 °F 8.6 °F 79% 30.19 in 3.0 mi NE 12.7 mph - 0.00 in Snow Light Snow
1:43 AM 14.0 °F -0.2 °F 8.6 °F 79% 30.19 in 1.8 mi NE 12.7 mph - 0.00 in Snow Light Snow
1:53 AM 14.0 °F -1.4 °F 9.0 °F 80% 30.23 in 1.2 mi NE 15.0 mph - 0.00 in Snow Light Snow
2:53 AM 14.0 °F -0.2 °F 10.0 °F 84% 30.22 in 1.8 mi NE 12.7 mph - 0.00 in Snow Light Snow
3:06 AM 14.0 °F -0.2 °F 10.4 °F 86% 30.18 in 2.0 mi NE 12.7 mph - 0.00 in Snow Light Snow
3:15 AM 14.0 °F -0.2 °F 10.4 °F 86% 30.18 in 2.0 mi NE 12.7 mph - 0.00 in Snow Light Snow
3:26 AM 14.0 °F -0.8 °F 10.4 °F 86% 30.17 in 4.0 mi NE 13.8 mph - 0.00 in Snow Light Snow
3:43 AM 14.0 °F -0.2 °F 10.4 °F 86% 30.16 in 2.0 mi NE 12.7 mph - 0.00 in Snow Light Snow
3:50 AM 14.0 °F -0.2 °F 10.4 °F 86% 30.16 in 1.8 mi NE 12.7 mph - 0.00 in Snow Light Snow
3:51 AM 14.0 °F -0.8 °F 10.0 °F 84% 30.20 in 1.8 mi NE 13.8 mph - 0.00 in Snow Light Snow
4:15 AM 14.0 °F -0.8 °F 10.4 °F 86% 30.15 in 2.0 mi NE 13.8 mph - 0.00 in Snow Light Snow
4:46 AM 14.0 °F 0.5 °F 8.6 °F 79% 30.15 in 1.8 mi NE 11.5 mph - 0.00 in Snow Light Snow
4:53 AM 14.0 °F -0.2 °F 10.0 °F 84% 30.18 in 1.8 mi NE 12.7 mph - 0.00 in Snow Light Snow
5:17 AM 14.0 °F 0.5 °F 8.6 °F 79% 30.13 in 2.0 mi NE 11.5 mph - 0.00 in Snow Light Snow
5:28 AM 14.0 °F -1.4 °F 8.6 °F 79% 30.13 in 4.0 mi NE 15.0 mph 21.9 mph 0.00 in Snow Light Snow
5:45 AM 12.2 °F -4.3 °F 8.6 °F 85% 30.13 in 2.5 mi NE 16.1 mph - 0.00 in Snow Light Snow
5:53 AM 12.9 °F -1.6 °F 9.0 °F 84% 30.17 in 2.5 mi NE 12.7 mph - 0.00 in Snow Light Snow
6:05 AM 12.2 °F -3.7 °F 8.6 °F 85% 30.11 in 3.0 mi NE 15.0 mph - 0.00 in Snow Light Snow
6:53 AM 12.9 °F -2.8 °F 8.1 °F 81% 30.14 in 3.0 mi NE 15.0 mph - 0.00 in Snow Light Snow
7:53 AM 12.0 °F -3.4 °F 7.0 °F 80% 30.13 in 3.0 mi NE 13.8 mph - 0.00 in Snow Light Snow
8:05 AM 12.2 °F -2.5 °F 6.8 °F 79% 30.08 in 2.0 mi NE 12.7 mph - 0.00 in Snow Light Snow
8:15 AM 12.2 °F -3.1 °F 6.8 °F 79% 30.08 in 1.5 mi NE 13.8 mph - 0.00 in Snow Light Snow
8:23 AM 12.2 °F -3.7 °F 6.8 °F 79% 30.07 in 1.0 mi NE 15.0 mph - 0.00 in Snow Light Snow
8:34 AM 12.2 °F -3.1 °F 8.6 °F 85% 30.08 in 0.8 mi NE 13.8 mph - 0.00 in Snow Light Snow
8:53 AM 12.0 °F -4.0 °F 8.1 °F 84% 30.11 in 0.8 mi NE 15.0 mph - 0.00 in Snow Light Snow
9:53 AM 12.9 °F -2.8 °F 8.1 °F 81% 30.10 in 0.8 mi NE 15.0 mph - 0.00 in Snow Light Snow
10:53 AM 12.9 °F -2.2 °F 9.0 °F 84% 30.09 in 0.8 mi NE 13.8 mph - 0.00 in Snow Light Snow
11:53 AM 12.9 °F -1.6 °F 9.0 °F 84% 30.05 in 0.5 mi NE 12.7 mph - 0.01 in Fog , Snow Snow
12:53 PM 12.0 °F -4.5 °F 8.1 °F 84% 30.00 in 0.5 mi NE 16.1 mph - 0.00 in Fog , Snow Snow
1:20 PM 12.2 °F -5.8 °F 6.8 °F 79% 29.95 in 0.8 mi NE 19.6 mph 26.5 mph 0.00 in Snow Light Snow
1:43 PM 12.2 °F -5.3 °F 6.8 °F 79% 29.95 in 0.2 mi NE 18.4 mph 26.5 mph 0.00 in Snow Heavy Snow
1:53 PM 12.0 °F -6.5 °F 7.0 °F 80% 29.99 in 0.2 mi NE 20.7 mph 26.5 mph 0.00 in Snow Heavy Snow
2:53 PM 10.9 °F -7.5 °F 6.1 °F 81% 29.99 in 0.8 mi NE 19.6 mph 27.6 mph 0.00 in Snow Light Snow
3:01 PM 10.4 °F -9.1 °F 6.8 °F 85% 29.94 in 0.8 mi NE 21.9 mph 28.8 mph 0.00 in Snow Light Snow
3:11 PM 10.4 °F -9.9 °F 6.8 °F 85% 29.93 in 1.2 mi NE 24.2 mph 28.8 mph 0.00 in Snow Light Snow
3:24 PM 10.4 °F -8.6 °F 5.0 °F 79% 29.93 in 0.8 mi NE 20.7 mph 32.2 mph 0.00 in Snow Light Snow
3:53 PM 10.9 °F -8.3 °F 5.0 °F 77% 29.99 in 0.5 mi NE 21.9 mph 29.9 mph 0.00 in Snow Snow
4:43 PM 10.4 °F -8.6 °F 5.0 °F 79% 29.94 in 0.5 mi NE 20.7 mph 27.6 mph 0.00 in Snow Snow
4:53 PM 10.0 °F -10.0 °F 5.0 °F 80% 29.99 in 0.5 mi NE 23.0 mph 31.1 mph 0.00 in Snow Snow
5:16 PM 10.4 °F -7.2 °F 5.0 °F 79% 29.95 in 1.0 mi NE 17.3 mph 28.8 mph 0.00 in Snow Light Snow
5:35 PM 10.4 °F -6.6 °F 5.0 °F 79% 29.96 in 1.2 mi NE 16.1 mph - 0.00 in Snow Light Snow
5:53 PM 9.0 °F -7.9 °F 3.9 °F 80% 30.01 in 1.2 mi ENE 15.0 mph - 0.00 in Snow Light Snow
6:17 PM 8.6 °F -8.9 °F 3.2 °F 79% 29.97 in 1.2 mi NE 16.1 mph 23.0 mph 0.00 in Snow Light Snow
6:53 PM 9.0 °F -9.5 °F 3.9 °F 80% 30.02 in 1.8 mi NE 18.4 mph - 0.00 in Snow Light Snow
7:53 PM 8.1 °F -9.6 °F 3.0 °F 80% 30.04 in 1.2 mi ENE 16.1 mph - 0.00 in Snow Light Snow
8:08 PM 8.6 °F -7.7 °F 3.2 °F 79% 29.99 in 2.0 mi ENE 13.8 mph - 0.00 in Snow Light Snow
8:17 PM 8.6 °F -7.0 °F 3.2 °F 79% 29.99 in 1.5 mi ENE 12.7 mph - 0.00 in Snow Light Snow
8:28 PM 8.6 °F -7.7 °F 3.2 °F 79% 29.99 in 3.0 mi ENE 13.8 mph - 0.00 in Snow Light Snow
8:44 PM 8.6 °F -8.3 °F 3.2 °F 79% 29.99 in 2.5 mi ENE 15.0 mph - 0.00 in Snow Light Snow
8:53 PM 8.1 °F -9.6 °F 3.0 °F 80% 30.04 in 1.0 mi ENE 16.1 mph 21.9 mph 0.00 in Snow Light Snow
9:19 PM 8.6 °F -6.3 °F 3.2 °F 79% 30.01 in 1.5 mi ENE 11.5 mph - 0.00 in Snow Light Snow
9:29 PM 8.6 °F -7.7 °F 3.2 °F 79% 30.01 in 2.5 mi NE 13.8 mph 23.0 mph 0.00 in Snow Light Snow
9:39 PM 8.6 °F -5.5 °F 3.2 °F 79% 30.01 in 1.5 mi ENE 10.4 mph 21.9 mph 0.00 in Snow Light Snow
9:50 PM 8.6 °F -6.3 °F 3.2 °F 79% 30.02 in 1.0 mi NE 11.5 mph - 0.00 in Snow Light Snow
9:53 PM 8.1 °F -7.0 °F 3.9 °F 83% 30.06 in 0.8 mi NE 11.5 mph - 0.00 in Snow Light Snow
10:08 PM 8.6 °F -7.0 °F 3.2 °F 79% 30.02 in 1.0 mi NE 12.7 mph - 0.00 in Snow Light Snow
10:11 PM 8.6 °F -8.3 °F 3.2 °F 79% 30.02 in 1.2 mi NE 15.0 mph - 0.00 in Snow Light Snow
10:30 PM 6.8 °F -7.8 °F 1.4 °F 79% 30.02 in 3.0 mi NE 10.4 mph - 0.00 in Snow Light Snow
10:53 PM 7.0 °F -9.1 °F 1.9 °F 80% 30.08 in 2.0 mi NE 12.7 mph - 0.00 in Snow Light Snow
11:19 PM 6.8 °F -11.3 °F 1.4 °F 79% 30.04 in 3.0 mi NE 16.1 mph 23.0 mph 0.00 in Snow Light Snow
11:53 PM 7.0 °F -10.4 °F -0.0 °F 73% 30.09 in 5.0 mi NE 15.0 mph 23.0 mph 0.00 in Snow Light Snow